Weather History for Trenton, NJ

Change the Weather History Date:

Sunday, August 11, 2013

  Actual Average Record
Temperature  
Mean Temperature 73 °F 75 °F  
Max Temperature 83 °F 84 °F 98 °F (1896)
Min Temperature 62 °F 65 °F 54 °F (1994)
Degree Days  
Heating Degree Days 0 0  
Month to date heating degree days 0 0  
Since 1 June heating degree days 4 24  
Since 1 July heating degree days 0 0  
Cooling Degree Days 8 10  
Month to date cooling degree days 82 111  
Year to date cooling degree days 804 688  
Since 1 June cooling degree days 714 631  
Growing Degree Days 22 (Base 50)    
Moisture  
Dew Point 60 °F    
Average Humidity 67    
Maximum Humidity 87    
Minimum Humidity 46    
Precipitation  
Precipitation 0.00 in 0.13 in 2.60 in (1875)
Month to date precipitation 1.40 1.58  
Year to date precipitation 29.82 28.46  
Sea Level Pressure  
Sea Level Pressure 30.06 in    
Wind  
Wind Speed 4 mph (North)    
Max Wind Speed 9 mph    
Max Gust Speed 14 mph    
Visibility 10 miles    
Events      
T = Trace of Precipitation, MM = Missing Value Source: NWS Daily Summary

Daily Weather History Graph

Daily Weather History Graph

Search for Another Location

Airport:

Trip Planner

Search our weather history database for the weather conditions in past years. The results will help you decide how hot, cold, wet, or windy it might be!

Date:

Astronomy

Aug. 11, 2013 Rise Set
Actual Time 6:06 AM EDT 8:01 PM EDT
Civil Twilight 5:37 AM EDT 8:30 PM EDT
Nautical Twilight 5:01 AM EDT 9:06 PM EDT
Astronomical Twilight 4:22 AM EDT 9:45 PM EDT
Moon 10:52 AM EDT (8/11) 10:14 PM EDT (8/11)
Length of Visible Light 14h 53m
Length of Day
13h 54m
Waxing Crescent, 22% of the Moon is Illuminated
Aug 11
Waxing Crescent
Aug 14
First Quarter
Aug 20
Full
Aug 28
Last Quarter
Sep 5
New

Hourly Weather History & Observations

Time (EDT) Temp. Heat Index Dew Point Humidity Pressure Visibility Wind Dir Wind Speed Gust Speed Precip Events Conditions
12:53 AM 68.0 °F - 64.0 °F 87% 30.04 in 10.0 mi North 3.5 mph - N/A   Clear
1:53 AM 66.9 °F - 61.0 °F 81% 30.04 in 10.0 mi North 4.6 mph - N/A   Clear
2:53 AM 64.9 °F - 60.1 °F 84% 30.05 in 10.0 mi North 4.6 mph - N/A   Clear
3:53 AM 64.0 °F - 57.9 °F 80% 30.06 in 10.0 mi North 4.6 mph - N/A   Clear
4:53 AM 64.0 °F - 55.9 °F 75% 30.07 in 10.0 mi Calm Calm - N/A   Clear
5:53 AM 64.0 °F - 55.0 °F 73% 30.09 in 10.0 mi North 3.5 mph - N/A   Clear
6:53 AM 62.1 °F - 55.9 °F 80% 30.10 in 10.0 mi North 3.5 mph - N/A   Clear
7:53 AM 66.9 °F - 57.0 °F 70% 30.11 in 10.0 mi North 3.5 mph - N/A   Clear
8:53 AM 71.1 °F - 55.0 °F 57% 30.11 in 10.0 mi NNE 4.6 mph - N/A   Clear
9:53 AM 73.0 °F - 55.0 °F 53% 30.12 in 10.0 mi NE 6.9 mph - N/A   Clear
10:53 AM 75.0 °F - 55.0 °F 50% 30.12 in 10.0 mi Calm Calm - N/A   Scattered Clouds
11:53 AM 75.9 °F - 54.0 °F 46% 30.11 in 10.0 mi Variable 3.5 mph - N/A   Mostly Cloudy
12:53 PM 77.0 °F - 59.0 °F 54% 30.09 in 10.0 mi Variable 3.5 mph - N/A   Partly Cloudy
1:53 PM 78.1 °F - 59.0 °F 52% 30.07 in 10.0 mi SSW 5.8 mph - N/A   Clear
2:53 PM 80.1 °F 80.7 °F 59.0 °F 48% 30.06 in 10.0 mi Calm Calm - N/A   Clear
3:53 PM 81.0 °F 81.7 °F 61.0 °F 50% 30.03 in 10.0 mi Calm Calm - N/A   Clear
4:53 PM 82.0 °F 82.4 °F 60.1 °F 47% 30.02 in 10.0 mi WNW 4.6 mph - N/A   Clear
5:53 PM 82.0 °F 82.4 °F 60.1 °F 47% 30.01 in 10.0 mi Calm Calm - N/A   Clear
6:53 PM 81.0 °F 82.5 °F 64.0 °F 56% 30.00 in 10.0 mi NNW 5.8 mph - N/A   Clear
7:53 PM 78.1 °F - 64.0 °F 62% 30.01 in 10.0 mi ENE 4.6 mph - N/A   Overcast
8:53 PM 75.9 °F - 66.9 °F 74% 30.02 in 10.0 mi SSE 6.9 mph - N/A   Overcast
9:53 PM 73.9 °F - 66.9 °F 79% 30.03 in 10.0 mi South 5.8 mph - N/A   Clear
10:53 PM 73.0 °F - 66.9 °F 81% 30.02 in 10.0 mi South 6.9 mph - N/A   Mostly Cloudy
11:53 PM 73.0 °F - 68.0 °F 84% 30.02 in 10.0 mi Calm Calm - N/A   Overcast